Weather in Buinsk

Russia / Chuvash Republic     55°11′42″N   47°03′23″E
temp.,
°C
wind,
m/s
gust,
m/s
humid.,
%
clouds,
%
prec.,
mm/h
press.,
hPa
HPBL,
m
13 april, tue
tue1300:00+6ese3999100 0.0 1035235
03:00+7se3899100 0.0 1035226
06:00+7sse2799100 0.0 1034206
09:00+12sse358176 0.0 1034260
12:00+17sse464454 0.0 1033906
15:00+18s464133 0.0 1032992
18:00+13sse27605 0.0 1031139
21:00+9sse37675 0.0 103193
14 april, wed
wed1400:00+7s226851 0.0 103128
03:00+6s226676 0.0 103019
06:00+6sse22665 0.0 102933
09:00+14sse364767 0.0 1028368
12:00+17sse46385 0.0 1027907
15:00+18sse46455 0.0 10251152
18:00+15se37665 0.0 1024231
21:00+11se298510 0.0 1024167
15 april, thu
thu1500:00+9sse25900 0.0 102381
03:00+9s22910 0.0 102216
06:00+9sse22890 0.0 102140
09:00+15s245892 0.0 1020550
12:00+18sw2340100 0.0 10191579
15:00+18wsw2235100 0.0 10191499
18:00+15nw11505 0.0 101810
21:00+11ne2260100 0.0 101911
16 april, fri
fri1600:00+10ene226478 0.0 101925
03:00+10ene2477100 0.7 101967
06:00+8ne388798 0.2 1020231
09:00+11ene467899 0.6 1021442
12:00+14ene456285 0.1 1021813
15:00+15ene565994 0.1 10221099
18:00+12ene4867100 0.0 1023644
21:00+9ene4117378 0.0 1024450
17 april, sat
sat1700:00+7ene4116075 0.0 1025434
03:00+4ene3106999 0.0 1026278
06:00+4ene3106734 0.0 1027341
09:00+9e464539 0.0 1027774
12:00+11ene453650 0.0 10271272
15:00+12ne443516 0.0 10261561
18:00+9ne23495 0.0 102678
21:00+5nne25625 0.0 102785